Location: Unspecified
(48.7670°N, 0.0000°E)
Time: 02:39:07
(UTC+00:00)

Vanguard 2 Rocket - Pass Details

Date: 25 June 2019
Orbit: 554 x 3326 km, 32.9° (Epoch: 22 July)

Event Time Altitude Azimuth Distance (km) Brightness Sun altitude
Rises 21:55:18 0° 237° (WSW) 3,881 10.1 -12.4°
Reaches altitude 10° 21:57:52 10° 226° (SW) 3,219 9.6 -12.7°
Maximum altitude 22:05:07 32° 167° (SSE) 2,668 8.7 -13.2°
Drops below altitude 10° 22:16:36 10° 112° (ESE) 5,175 10.3 -14.1°
Sets 22:22:05 0° 104° (ESE) 6,609 10.9 -14.4°
